Location: N�rnberg
(49.4471°N, 11.0632°E)
Time: 19:45:15
(UTC+01:00)

Envisat - Pass Details

Date: 18 February 2026
Orbit: 761 x 763 km, 98.4° (Epoch: 6 March)

Event Time Altitude Azimuth Distance (km) Brightness Sun altitude
Rises 04:37:21 0° 3° (N) 3,237 6.5 -26.9°
Reaches altitude 10° 04:40:14 10° 347° (NNW) 2,306 5.5 -26.5°
Enters shadow 04:40:48 12° 342° (NNW) 2,155 5.3 -26.4°
